Weather History for Noatak, AK

Change the Weather History Date:

Friday, November 23, 2012

  Actual Average Record
Temperature  
Mean Temperature -16 °F -  
Max Temperature -11 °F 10 °F 39 °F (2002)
Min Temperature -20 °F 0 °F -20 °F (2012)
Degree Days  
Heating Degree Days 80    
Moisture  
Dew Point -26 °F    
Average Humidity 65    
Maximum Humidity 84    
Minimum Humidity 58    
Precipitation  
Precipitation 0.00 in - - ()
Sea Level Pressure  
Sea Level Pressure 30.30 in    
Wind  
Wind Speed 1 mph (NNE)    
Max Wind Speed 5 mph    
Max Gust Speed -    
Visibility 10 miles    
Events      
Averages and records for this station are not official NWS values.
T = Trace of Precipitation, MM = Missing Value Source: NWS Daily Summary

Daily Weather History Graph

Daily Weather History Graph

Search for Another Location

Airport:

Trip Planner

Search our weather history database for the weather conditions in past years. The results will help you decide how hot, cold, wet, or windy it might be!

Date:

Astronomy

Nov. 23, 2012 Rise Set
Actual Time 11:39 AM AKST 3:37 PM AKST
Civil Twilight 10:10 AM AKST 5:05 PM AKST
Nautical Twilight 8:54 AM AKST 6:21 PM AKST
Astronomical Twilight 7:48 AM AKST 7:28 PM AKST
Moon 2:57 PM AKST (11/23) 4:59 AM AKST (11/23)
Length of Visible Light 6h 55m
Length of Day
3h 57m
Waxing Gibbous, 81% of the Moon is Illuminated
Nov 23
Waxing Gibbous
Nov 28
Full
Dec 6
Last Quarter
Dec 12
New
Dec 19
First Quarter

Hourly Weather History & Observations

Time (AKST) Temp. Windchill Dew Point Humidity Pressure Visibility Wind Dir Wind Speed Gust Speed Precip Events Conditions
12:16 AM -18.4 °F - -29.2 °F 58% 30.33 in 10.0 mi Calm Calm - N/A   Clear
12:36 AM -20.2 °F - -27.4 °F 69% 30.33 in 10.0 mi Calm Calm - N/A   Clear
12:56 AM -18.4 °F - -27.4 °F 63% 30.32 in 10.0 mi Calm Calm - N/A   Clear
1:16 AM -18.4 °F - -25.6 °F 70% 30.32 in 10.0 mi Calm Calm - N/A   Clear
1:36 AM -18.4 °F - -29.2 °F 58% 30.32 in 10.0 mi Calm Calm - N/A   Clear
1:56 AM -18.4 °F - -27.4 °F 63% 30.31 in 10.0 mi Calm Calm - N/A   Clear
2:16 AM -20.2 °F - -29.2 °F 63% 30.31 in 10.0 mi Calm Calm - N/A   Clear
2:36 AM -18.4 °F - -27.4 °F 63% 30.31 in 10.0 mi Calm Calm - N/A   Clear
3:36 AM -18.4 °F - -27.4 °F 63% 30.30 in 10.0 mi Calm Calm - N/A   Clear
3:56 AM -18.4 °F - -27.4 °F 63% 30.30 in 10.0 mi Calm Calm - N/A   Clear
4:16 AM -20.2 °F - -29.2 °F 63% 30.30 in 10.0 mi Calm Calm - N/A   Clear
4:36 AM -20.2 °F - -29.2 °F 63% 30.30 in 10.0 mi Calm Calm - N/A   Clear
4:56 AM -18.4 °F - -27.4 °F 63% 30.29 in 10.0 mi Calm Calm - N/A   Clear
5:16 AM -18.4 °F - -27.4 °F 63% 30.29 in 10.0 mi Calm Calm - N/A   Clear
5:36 AM -18.4 °F - -27.4 °F 63% 30.29 in 10.0 mi Calm Calm - N/A   Clear
5:56 AM -18.4 °F - -27.4 °F 63% 30.29 in 10.0 mi Calm Calm - N/A   Clear
6:16 AM -18.4 °F - -29.2 °F 58% 30.29 in 10.0 mi Calm Calm - N/A   Clear
6:36 AM -18.4 °F - -27.4 °F 63% 30.29 in 10.0 mi Calm Calm - N/A   Clear
6:56 AM -18.4 °F - -27.4 °F 63% 30.29 in 10.0 mi Calm Calm - N/A   Clear
7:16 AM -18.4 °F - -27.4 °F 63% 30.29 in 10.0 mi Calm Calm - N/A   Clear
7:36 AM -18.4 °F - -27.4 °F 63% 30.29 in 10.0 mi Calm Calm - N/A   Clear
7:56 AM -20.2 °F -33.5 °F -29.2 °F 63% 30.30 in 10.0 mi North 4.6 mph - N/A   Clear
8:16 AM -18.4 °F -31.4 °F -27.4 °F 63% 30.29 in 10.0 mi North 4.6 mph - N/A   Clear
8:36 AM -20.2 °F -30.9 °F -29.2 °F 63% 30.30 in 10.0 mi North 3.5 mph - N/A   Clear
8:56 AM -18.4 °F -28.9 °F -27.4 °F 63% 30.30 in 10.0 mi NNE 3.5 mph - N/A   Clear
9:16 AM -18.4 °F -31.4 °F -27.4 °F 63% 30.29 in 10.0 mi NE 4.6 mph - N/A   Clear
9:36 AM -18.4 °F -28.9 °F -27.4 °F 63% 30.29 in 10.0 mi NNE 3.5 mph - N/A   Clear
9:56 AM -18.4 °F -31.4 °F -27.4 °F 63% 30.29 in 10.0 mi NNE 4.6 mph - N/A   Clear
10:16 AM -18.4 °F -31.4 °F -25.6 °F 70% 30.30 in 10.0 mi NNE 4.6 mph - N/A   Clear
10:36 AM -16.6 °F -26.8 °F -25.6 °F 64% 30.30 in 10.0 mi NE 3.5 mph - N/A   Clear
10:56 AM -18.4 °F - -27.4 °F 63% 30.31 in 10.0 mi Calm Calm - N/A   Clear
11:16 AM -18.4 °F - -29.2 °F 58% 30.31 in 10.0 mi Calm Calm - N/A   Clear
11:36 AM -18.4 °F -28.9 °F -27.4 °F 63% 30.32 in 10.0 mi North 3.5 mph - N/A   Clear
11:56 AM -18.4 °F - -25.6 °F 70% 30.32 in 10.0 mi Calm Calm - N/A   Clear
12:16 PM -18.4 °F - -25.6 °F 70% 30.31 in 10.0 mi Calm Calm - N/A   Clear
12:36 PM -16.6 °F - -27.4 °F 58% 30.31 in 9.0 mi Calm Calm - N/A   Clear
12:56 PM -16.6 °F - -23.8 °F 70% 30.31 in 10.0 mi Calm Calm - N/A   Clear
1:16 PM -14.8 °F - -23.8 °F 64% 30.30 in 10.0 mi Calm Calm - N/A   Clear
1:36 PM -14.8 °F - -25.6 °F 58% 30.30 in 10.0 mi Calm Calm - N/A   Clear
1:56 PM -14.8 °F - -20.2 °F 77% 30.30 in 10.0 mi Calm Calm - N/A   Clear
2:16 PM -14.8 °F - -23.8 °F 64% 30.30 in 10.0 mi Calm Calm - N/A   Clear
2:36 PM -13.0 °F - -20.2 °F 70% 30.30 in 10.0 mi Calm Calm - N/A   Clear
2:56 PM -13.0 °F - -22.0 °F 64% 30.30 in 10.0 mi Calm Calm - N/A   Clear
3:16 PM -14.8 °F - -23.8 °F 64% 30.29 in 10.0 mi Calm Calm - N/A   Clear
3:36 PM -13.0 °F - -20.2 °F 70% 30.29 in 7.0 mi Calm Calm - N/A   Clear
3:56 PM -13.0 °F - -22.0 °F 64% 30.29 in 10.0 mi Calm Calm - N/A   Clear
4:16 PM -11.2 °F - -20.2 °F 64% 30.29 in 3.0 mi Calm Calm - N/A   Clear
4:36 PM -14.8 °F - -25.6 °F 58% 30.29 in 4.0 mi Calm Calm - N/A   Clear
4:56 PM -14.8 °F - -18.4 °F 84% 30.29 in 10.0 mi Calm Calm - N/A   Clear
5:16 PM -14.8 °F - -25.6 °F 58% 30.29 in 10.0 mi Calm Calm - N/A   Clear
5:36 PM -14.8 °F - -20.2 °F 77% 30.29 in 10.0 mi Calm Calm - N/A   Clear
5:56 PM -14.8 °F - -23.8 °F 64% 30.29 in 10.0 mi Calm Calm - N/A   Clear
6:16 PM -16.6 °F - -23.8 °F 70% 30.29 in 10.0 mi Calm Calm - N/A   Clear
6:36 PM -14.8 °F - -23.8 °F 64% 30.30 in 10.0 mi Calm Calm - N/A   Clear
6:56 PM -16.6 °F - -25.6 °F 64% 30.30 in 10.0 mi Calm Calm - N/A   Clear
7:16 PM -16.6 °F - -25.6 °F 64% 30.30 in 10.0 mi Calm Calm - N/A   Clear
7:36 PM -16.6 °F - -23.8 °F 70% 30.30 in 10.0 mi Calm Calm - N/A   Clear
7:56 PM -16.6 °F - -23.8 °F 70% 30.30 in 10.0 mi Calm Calm - N/A   Clear
8:16 PM -14.8 °F - -25.6 °F 58% 30.30 in 10.0 mi Calm Calm - N/A   Clear
8:36 PM -14.8 °F - -20.2 °F 77% 30.31 in 10.0 mi Calm Calm - N/A   Clear
8:56 PM -16.6 °F - -27.4 °F 58% 30.31 in 10.0 mi Calm Calm - N/A   Clear
9:16 PM -16.6 °F - -23.8 °F 70% 30.31 in 10.0 mi Calm Calm - N/A   Clear
9:36 PM -16.6 °F -29.3 °F -23.8 °F 70% 30.31 in 10.0 mi North 4.6 mph - N/A   Clear
9:56 PM -14.8 °F - -22.0 °F 70% 30.31 in 7.0 mi Calm Calm - N/A   Clear
10:16 PM -16.6 °F -26.8 °F -25.6 °F 64% 30.31 in 10.0 mi North 3.5 mph - N/A   Clear
10:36 PM -16.6 °F - -25.6 °F 64% 30.32 in 10.0 mi Calm Calm - N/A   Clear
10:56 PM -16.6 °F -26.8 °F -23.8 °F 70% 30.32 in 10.0 mi North 3.5 mph - N/A   Clear
11:16 PM -16.6 °F - -25.6 °F 64% 30.32 in 10.0 mi Calm Calm - N/A   Clear
11:36 PM -16.6 °F - -23.8 °F 70% 30.32 in 10.0 mi Calm Calm - N/A   Clear
11:56 PM -16.6 °F - -25.6 °F 64% 30.33 in 10.0 mi Calm Calm - N/A   Clear